[[{"header":{"parameterUnit":"m.s-1","parameterCategory":1,"la1":30.2991,"la2":30.254,"lo1":-89.0895,"lo2":-89.0444,"dy":0.0017,"dx":0.0017,"nx":28,"ny":28,"refTime":"2024-05-17T03:00:00:Z","depth":0,"parameterNumber":2,"parameterNumberName":"U-component_of_WINDS"},"data":[0,0,0,0,0,0,0,0,0,0,0,0,0,0,0,0,0,0,0,0,0,0,0,0,0,0,0,0,0,0,0,0,0,0,0,0,0,0,0,0,0,0,0,0,0,0,0,0,0,0,0,0,0,0,0,0,0,0,1.4005,1.4004,0,1.396,1.3959,1.3959,1.3896,1.3895,1.3894,1.3893,1.3849,1.3849,1.3848,0,0,0,0,0,0,0,0,0,0,0,0,0,1.4037,1.4037,1.4005,1.4004,1.4003,1.396,1.3959,1.3959,1.3897,1.3895,1.3894,1.3893,1.3849,1.3849,1.3848,0,0,0,0,0,0,0,0,0,0,0,0,0,1.4011,1.4037,1.4005,1.3967,1.3963,1.396,1.3959,1.3958,1.3897,1.3895,1.3894,1.3892,1.3849,1.3849,1.3848,1.3879,0,0,1.3847,1.3847,0,0,0,0,0,0,0,0,1.4012,1.401,1.3973,1.397,1.3965,1.3932,1.3954,1.3932,1.3897,1.3922,1.3893,1.3891,1.3878,1.3875,1.387,1.3876,1.3875,1.3847,1.3847,1.3847,1.3847,0,0,0,0,0,0,0,1.4014,1.4011,1.3987,1.3973,1.3968,1.3953,1.3947,1.395,1.391,1.392,1.3915,1.3911,1.3875,1.3871,1.3869,1.3874,1.3847,1.3847,1.3847,1.3847,1.3902,1.3903,0,0,0,0,0,0,1.4021,1.4013,1.3988,1.3985,1.3985,1.3954,1.3947,1.3944,1.3909,1.3902,1.3912,1.3908,1.3872,1.3869,1.3867,1.3899,1.3847,1.3847,1.3847,1.39,1.3902,1.3904,0,0,0,0,0,0,1.4022,1.402,1.399,1.3998,1.3993,1.3955,1.3952,1.3944,1.3939,1.3903,1.3896,1.3915,1.3871,1.3867,1.3876,1.3897,1.3847,1.3846,1.3898,1.3901,1.3903,1.3965,0,0,0,0,0,0,1.4024,1.4021,1.4031,1.3999,1.3993,1.4,1.3953,1.3945,1.3939,1.3933,1.3904,1.3897,1.3869,1.3877,1.3876,1.3896,1.3846,1.3896,1.3899,1.3902,1.3961,1.3969,1.3976,0,0,0,0,0,1.4025,1.4051,1.4032,1.403,1.4006,1.4001,1.3998,1.3964,1.3941,1.3952,1.3928,1.3898,1.3895,1.3878,1.3876,1.3897,1.3895,1.3898,1.3902,1.3957,1.3967,1.3976,0,0,0,0,0,0,1.4088,1.4046,1.4025,1.4041,1.4025,1.399,1.4003,1.3976,1.3967,1.3962,1.3921,1.3915,1.3928,1.3913,1.3895,1.3923,1.389,1.3894,1.3933,1.3942,1.395,1.3953,1.3846,0,0,0,0,0,1.4104,1.4103,1.4067,1.4084,1.4077,1.4042,1.4039,1.4014,1.3996,1.3989,1.3966,1.395,1.3945,1.3943,1.3936,1.3958,1.3951,1.3971,1.3979,1.3986,1.3989,1.3999,1.4007,1.3916,1.3916,1.3916,0,0,1.4136,1.4113,1.4115,1.4097,1.4081,1.4081,1.4036,1.4039,1.4039,1.3989,1.3995,1.3979,1.3958,1.3973,1.3978,1.3961,1.4013,1.399,1.3996,1.3995,1.4003,1.4012,1.402,1.3918,1.3918,1.3917,0,0,1.4195,1.4178,1.4191,1.4176,1.4153,1.4129,1.4132,1.4102,1.4088,1.4094,1.4057,1.4056,1.4049,1.4035,1.4027,1.4081,1.4053,1.408,1.4121,1.4131,1.4138,1.4144,1.4163,1.417,1.4084,1.4084,1.4084,0,1.4239,1.4237,1.4201,1.4205,1.4198,1.4153,1.4165,1.4153,1.4129,1.4125,1.4106,1.4095,1.4078,1.4089,1.4102,1.4098,1.41,1.4083,1.414,1.4146,1.4151,1.4168,1.4175,1.4087,1.4087,1.4087,1.4086,0,1.4292,1.4291,1.4304,1.4282,1.4276,1.4285,1.425,1.4248,1.4224,1.4202,1.4209,1.4186,1.4174,1.4175,1.4152,1.4183,1.4173,1.4147,1.4113,1.4164,1.4179,1.4186,1.4092,1.4091,1.409,1.4089,0,0,1.4389,1.4346,1.4351,1.434,1.4312,1.4311,1.4318,1.4305,1.4304,1.429,1.4294,1.4289,1.4265,1.4256,1.4231,1.424,1.4283,1.4213,1.4212,1.4226,1.4315,1.4334,1.4342,1.4265,1.4266,1.4267,1.4317,0,1.4442,1.445,1.4417,1.4434,1.4433,1.439,1.4396,1.4379,1.4359,1.4355,1.4333,1.433,1.4298,1.4293,1.43,1.4277,1.43,1.4273,1.4268,1.4268,1.4274,1.4351,1.4371,1.4419,1.4323,1.4324,1.4324,0,1.4505,1.4493,1.451,1.448,1.4478,1.4484,1.4469,1.4467,1.4447,1.4431,1.4422,1.4392,1.4397,1.4364,1.4369,1.4351,1.4347,1.4336,1.4337,1.4335,1.4299,1.435,1.4434,1.4441,1.4334,1.4333,1.4332,0,1.4574,1.4562,1.457,1.4562,1.4528,1.4532,1.4518,1.4497,1.4491,1.4479,1.4475,1.4464,1.4458,1.445,1.4418,1.4398,1.4427,1.4392,1.4414,1.4415,1.4422,1.4422,1.4506,1.4421,1.4421,1.4421,1.4421,0,1.4636,1.4648,1.46,1.4605,1.4617,1.4579,1.4592,1.4574,1.4555,1.4556,1.4518,1.452,1.4478,1.4475,1.4451,1.4459,1.4457,1.4444,1.4437,1.4447,1.4449,1.4444,1.4439,1.4423,1.4422,1.4422,1.4421,0,1.4715,1.4683,1.4689,1.4656,1.4648,1.4658,1.4629,1.4632,1.461,1.4611,1.4609,1.4574,1.4569,1.4537,1.4524,1.4507,1.4524,1.4511,1.453,1.4526,1.455,1.4548,1.4633,1.4642,1.4552,1.4553,1.4554,0,1.4756,1.4764,1.4731,1.4729,1.4716,1.4713,1.4707,1.467,1.4666,1.4643,1.4649,1.4641,1.4632,1.4625,1.4599,1.4589,1.4575,1.4605,1.4573,1.4582,1.4574,1.4574,1.4574,1.4612,1.4613,1.4614,1.4615,0,1.4833,1.4817,1.481,1.4797,1.4791,1.478,1.4766,1.4766,1.4725,1.4722,1.4716,1.4709,1.4696,1.4687,1.4673,1.4658,1.463,1.4625,1.463,1.4639,1.465,1.4644,1.4549,1.4623,1.4622,1.4622,1.4621,1.4621,1.4894,1.4898,1.4876,1.4869,1.4855,1.4843,1.4844,1.4821,1.4815,1.4801,1.478,1.4777,1.4756,1.4733,1.4721,1.4718,1.4702,1.4709,1.471,1.4712,1.4717,1.4651,1.4715,1.4715,1.4715,1.4715,1.4714,0,1.4968,1.4951,1.4945,1.4927,1.4922,1.4895,1.4878,1.4876,1.4873,1.4856,1.4848,1.4841,1.4832,1.4805,1.4794,1.4797,1.4784,1.4795,1.4794,1.4791,1.4733,1.4729,1.4806,1.4806,1.4806,1.4806,1.4806,1.4806,1.5006,1.5012,1.4994,1.4993,1.4976,1.4972,1.4965,1.4953,1.494,1.4933,1.4926,1.4908,1.4887,1.4874,1.4865,1.4857,1.4855,1.4871,1.4859,1.4804,1.4796,1.4787,1.4784,1.4871,1.4871,1.4918,1.4918,1.4918]},{"header":{"parameterUnit":"m.s-1","parameterCategory":1,"la1":30.2991,"la2":30.254,"lo1":-89.0895,"lo2":-89.0444,"dy":0.0017,"dx":0.0017,"nx":28,"ny":28,"refTime":"2024-05-17T03:00:00:Z","depth":0,"parameterNumber":3,"parameterNumberName":"V-component_of_WINDS"},"data":[0,0,0,0,0,0,0,0,0,0,0,0,0,0,0,0,0,0,0,0,0,0,0,0,0,0,0,0,0,0,0,0,0,0,0,0,0,0,0,0,0,0,0,0,0,0,0,0,0,0,0,0,0,0,0,0,0,0,5.3944,5.3945,0,5.4033,5.4034,5.4035,5.3996,5.3994,5.3992,5.399,5.4076,5.408,5.4084,0,0,0,0,0,0,0,0,0,0,0,0,0,5.3733,5.3737,5.3944,5.3945,5.3946,5.4033,5.4034,5.4036,5.3997,5.3994,5.3991,5.3989,5.4074,5.4079,5.4084,0,0,0,0,0,0,0,0,0,0,0,0,0,5.3823,5.3738,5.3943,5.3937,5.3938,5.4033,5.4034,5.4036,5.3997,5.3994,5.3991,5.3988,5.4072,5.4079,5.4085,5.419,0,0,5.4105,5.4108,0,0,0,0,0,0,0,0,5.3818,5.3831,5.3937,5.3938,5.3938,5.4,5.3991,5.4087,5.3998,5.3974,5.399,5.3986,5.4053,5.4061,5.4084,5.4194,5.4198,5.4105,5.4109,5.4112,5.4114,0,0,0,0,0,0,0,5.3812,5.3827,5.3979,5.3939,5.3939,5.3928,5.3937,5.4009,5.403,5.3976,5.3974,5.3985,5.4052,5.4078,5.4086,5.4199,5.4105,5.4111,5.4115,5.4117,5.4398,5.4401,0,0,0,0,0,0,5.3807,5.3822,5.3976,5.3982,5.3869,5.3934,5.3945,5.3984,5.403,5.4034,5.3988,5.3983,5.4069,5.4079,5.4089,5.4215,5.4112,5.4118,5.4122,5.4394,5.4399,5.4403,0,0,0,0,0,0,5.3802,5.3821,5.3972,5.3901,5.392,5.3941,5.3985,5.3987,5.4013,5.4039,5.4041,5.4011,5.4067,5.408,5.4165,5.4217,5.4121,5.4127,5.439,5.4396,5.4401,5.4467,0,0,0,0,0,0,5.3796,5.3819,5.3861,5.3903,5.3924,5.405,5.3989,5.3991,5.4025,5.4019,5.4061,5.4064,5.4065,5.4156,5.4172,5.4224,5.4132,5.4386,5.4393,5.4399,5.446,5.4474,5.4486,0,0,0,0,0,5.3789,5.3875,5.3863,5.3882,5.3977,5.4053,5.4064,5.4065,5.4029,5.407,5.4086,5.4063,5.4209,5.4165,5.4183,5.4238,5.4382,5.4391,5.4399,5.4454,5.4471,5.4485,0,0,0,0,0,0,5.3837,5.388,5.3868,5.397,5.4008,5.4046,5.4098,5.4083,5.413,5.4123,5.412,5.413,5.4218,5.4236,5.4187,5.4341,5.429,5.4302,5.4326,5.4342,5.4355,5.4348,5.4137,0,0,0,0,0,5.3859,5.392,5.3954,5.404,5.406,5.4076,5.4109,5.4107,5.4145,5.416,5.4183,5.4219,5.4273,5.4309,5.436,5.4462,5.447,5.4509,5.4521,5.4532,5.4542,5.4597,5.4614,5.4429,5.4429,5.4429,0,0,5.3906,5.3938,5.3975,5.4051,5.408,5.4141,5.409,5.4156,5.42,5.417,5.4253,5.427,5.431,5.4405,5.4448,5.4423,5.4595,5.4542,5.455,5.4555,5.4607,5.4624,5.464,5.4435,5.4434,5.4433,0,0,5.4023,5.4053,5.4129,5.416,5.4205,5.4215,5.4233,5.4274,5.4285,5.4368,5.4347,5.4398,5.4491,5.4521,5.4548,5.4676,5.4656,5.4692,5.4758,5.4812,5.4827,5.4839,5.4885,5.4901,5.4702,5.4703,5.4703,0,5.4075,5.4168,5.4169,5.4238,5.4271,5.4248,5.4324,5.4352,5.4411,5.4434,5.4406,5.4522,5.4547,5.4649,5.468,5.4703,5.4722,5.4688,5.4825,5.4838,5.485,5.4893,5.491,5.4707,5.4706,5.4706,5.4705,0,5.4229,5.4294,5.4349,5.4409,5.4448,5.452,5.453,5.4569,5.4563,5.4575,5.466,5.469,5.4746,5.477,5.4764,5.487,5.4853,5.4825,5.4773,5.4872,5.4912,5.4928,5.4713,5.4711,5.471,5.4709,0,0,5.4378,5.4439,5.4459,5.4486,5.4535,5.4584,5.4653,5.4711,5.4744,5.4785,5.4843,5.4922,5.4896,5.4927,5.4924,5.4971,5.507,5.4937,5.4938,5.4961,5.5188,5.5209,5.5228,5.5057,5.506,5.5063,5.5185,0,5.4499,5.4624,5.4627,5.4741,5.4799,5.4778,5.4839,5.4874,5.4887,5.4937,5.495,5.5007,5.4969,5.4987,5.5033,5.5049,5.5116,5.504,5.5109,5.5111,5.51,5.525,5.5272,5.5386,5.52,5.5203,5.5205,0,5.4656,5.4705,5.4825,5.4865,5.489,5.4945,5.4997,5.5046,5.5085,5.5091,5.5126,5.5115,5.5184,5.5131,5.5225,5.5174,5.5202,5.5213,5.5218,5.5224,5.5164,5.526,5.5422,5.5439,5.523,5.5228,5.5226,0,5.4753,5.4848,5.4932,5.4956,5.5005,5.5044,5.5065,5.5101,5.5135,5.5181,5.5202,5.5254,5.5282,5.5322,5.5325,5.5286,5.542,5.5367,5.5425,5.5426,5.5455,5.5453,5.5624,5.5473,5.5473,5.5472,5.5472,0,5.4887,5.4961,5.4976,5.5028,5.511,5.5112,5.5192,5.521,5.5243,5.5296,5.528,5.533,5.5331,5.5382,5.5384,5.5462,5.5474,5.548,5.548,5.5482,5.5481,5.55,5.5492,5.5477,5.5476,5.5475,5.5474,0,5.5008,5.5022,5.5113,5.5152,5.5164,5.5222,5.5255,5.5303,5.5315,5.5383,5.5398,5.5416,5.5475,5.5482,5.555,5.5551,5.5644,5.5636,5.5632,5.5631,5.5689,5.5684,5.5878,5.5904,5.5737,5.5738,5.574,0,5.5093,5.515,5.5196,5.5232,5.5257,5.5314,5.535,5.5353,5.539,5.5439,5.5481,5.5538,5.5585,5.5679,5.5696,5.5748,5.574,5.5805,5.5747,5.5747,5.5741,5.5737,5.5743,5.5816,5.5817,5.5819,5.582,0,5.5242,5.5246,5.5299,5.5355,5.5398,5.5441,5.5481,5.5511,5.5519,5.5561,5.5622,5.5658,5.5728,5.5785,5.5836,5.5856,5.5839,5.5838,5.5854,5.5857,5.5853,5.5856,5.5662,5.5834,5.5832,5.5831,5.583,5.583,5.5347,5.5397,5.5438,5.5497,5.5529,5.5567,5.5615,5.5633,5.5685,5.5744,5.5741,5.5808,5.5844,5.5911,5.5935,5.5986,5.5964,5.5988,5.5994,5.6,5.6006,5.5845,5.5995,5.5995,5.5994,5.5994,5.5994,0,5.5495,5.5521,5.5575,5.5634,5.568,5.5663,5.5706,5.5746,5.5806,5.5842,5.5888,5.5958,5.6013,5.6035,5.6088,5.6124,5.6118,5.6138,5.6135,5.614,5.6022,5.6003,5.6143,5.6143,5.6142,5.6142,5.6142,5.6142,5.5578,5.5661,5.567,5.5768,5.5792,5.5859,5.5886,5.592,5.5949,5.6029,5.6075,5.609,5.612,5.6175,5.6224,5.6229,5.6249,5.6273,5.6274,5.6164,5.6148,5.6134,5.6116,5.6277,5.6278,5.6388,5.6389,5.639]}]]